Regional Weather Roundup
Issued by NWS Charleston, SC

Current Version | Previous Version | Text Only | Print | Product List | Glossary Off
Versions: 1 2 3 4 5 6 7 8 9 10 11 12 13 14 15 16 17 18 19 20 21 22 23 24 25 26 27 28 29 30 31 32 33 34 35 36 37 38 39 40 41 42 43 44 45 46 47 48 49 50

056
ASUS42 KCHS 040427
RWRCHS

REGIONAL WEATHER ROUNDUP
NATIONAL WEATHER SERVICE CHARLESTON SC
1100 PM EST SAT DEC 03 2016

NOTE: "FAIR" INDICATES FEW OR NO CLOUDS BELOW 12,000 FEET WITH NO
SIGNIFICANT WEATHER AND/OR OBSTRUCTIONS TO VISIBILITY.

NOT ALL STATIONS ARE QUALITY CONTROLLED. USE DATA WITH CAUTION...
ESPECIALLY DEWPOINT OBSERVATIONS.

SCZ027-030-031-034>040-042>050-040500-
...SOUTHEAST SOUTH CAROLINA...

CITY           SKY/WX    TMP DP  RH WIND       PRES   REMARKS
N CHARLESTON   CLOUDY    51  38  60 NE7       30.27F
WATERFRONT PRK   N/A     53  40  61 VRB3      30.28R
MOUNT PLEASANT CLOUDY    50  41  71 CALM      30.27F
JOHNS ISLAND   CLOUDY    52  39  62 NE6       30.26F
PINOPOLIS        N/A     54  37  54 NE6       30.20R
MONCKS CORNER  LGT RAIN  48  39  71 E3        30.26F
SUMMERVILLE    CLOUDY    50  43  76 CALM      30.26F
BEAUFORT MCAS  CLOUDY    53  40  61 NE6       30.26F
BEAUFORT ARPT  CLOUDY    52  41  66 E7        30.25F
HILTON HEAD IS CLOUDY    55  43  62 N7        30.25F
WALTERBORO     CLOUDY    52  41  66 CALM      30.25F
ALLENDALE      MOCLDY    50  39  66 CALM      30.24S

...SOUTHERN MIDLANDS AND PEE DEE...

CITY           SKY/WX    TMP DP  RH WIND       PRES   REMARKS
GEORGETOWN     NOT AVBL
KINGSTREE      DRIZZLE   45  41  87 CALM      30.27F
ORANGEBURG     CLOUDY    48  42  80 NE3       30.25F
BARNWELL       NOT AVBL
AIKEN          CLOUDY    45  43  93 E3        30.26F
MANNING        NOT AVBL
COLUMBIA       LGT RAIN  50  45  83 CALM      30.25F
SUMTER         LGT RAIN  48  45  87 NE3       30.23F
FLORENCE       LGT RAIN  48  43  82 E3        30.28S
MYRTLE BEACH   CLOUDY    48  37  66 CALM      30.30F
N MYRTLE BEACH PTCLDY    46  40  79 NE3       30.27F

$$

GAZ063-065-086>088-099>101-113>116-118-119-134>141-150-040500-
...SOUTHEAST GEORGIA...

CITY           SKY/WX    TMP DP  RH WIND       PRES   REMARKS
SAVANNAH ARPT  CLOUDY    54  43  66 E7        30.25F
HUNTER AAF     CLOUDY    55  45  69 E8        30.21F
FORT STEWART   CLOUDY    55  42  62 CALM      30.22F
STATESBORO     CLOUDY    54  44  68 CALM      30.23F
SYLVANIA       CLOUDY   N/A N/A N/A E5        30.24F
CLAXTON        CLOUDY    54  45  72 NE5       30.22F

...CSRA...CENTRAL AND FAR SOUTHEAST GEORGIA...

CITY           SKY/WX    TMP DP  RH WIND       PRES   REMARKS
THOMSON        CLOUDY    49  47  93 SE3       30.25F
AUGUSTA-BUSH   CLOUDY    50  44  80 SE3       30.23F
AUGUSTA-DANIEL LGT RAIN  50  40  68 E5        30.23F
SWAINSBORO     CLOUDY    54  39  58 E9        30.21F
VIDALIA        CLOUDY    55  46  71 E5        30.21F
EASTMAN        CLOUDY    57  26  30 SE5       30.22F
HAZLEHURST     CLOUDY    57  46  66 E7        30.20F
ALMA           CLOUDY    55  47  74 E5        30.21F
WAYCROSS       CLOUDY    58  53  81 E8        30.20F
JESUP          MOCLDY    55  48  76 E5        30.22F
BAXLEY         MOCLDY    55  50  82 E5        30.20F
BRUNSWICK      MOCLDY    59  54  82 NE9       30.21F
SAINT SIMONS   CLOUDY    60  49  66 NE13      30.21F

$$

SCZ027-028-034-036>038-045-046-048>050-GAZ119-141-040500-
...LAKE AND SUPPLEMENTAL COASTAL OBSERVATIONS...

STATION/POSITION TIME  TEMP    WIND        PRES    WAVE   SWELL
                       AIR SEA DIR/SP/G            HT/PER HT/PER/DIR
                 (UTC) (F)     (DEG/KT/KT) (MB)    (FT/S) (FT/S/D)
WINYAH BAY       0330   49     360/  4     1025.0S
LAKE MURRAY      0330   50        CALM     1024.0F
ACE BASIN NERRS  0345   51      20/  1     1025.0S
FORT PULASKI     0400   56 62   60/ 10/ 12 1024.3
SAPELO ISLAND    0400   59      50/  9     1023.0

$$

ANZ835-935-AMZ111-154-330-350-352-354-370-450-454-472-040500-
...C-MAN AND BUOY OBSERVATIONS...

STATION/POSITION TIME  TEMP    WIND        PRES    WAVE   SWELL
                       AIR SEA DIR/SP/G            HT/PER HT/PER/DIR
                 (UTC) (F)     (DEG/KT/KT) (MB)    (FT/S) (FT/S/D)
BUOY 41004       0350   58 74   20/ 12/ 17 1024.4R   3/ 8   2/120/ 8
BUOY 41008       0350   62 65   60/ 17/ 19 1023.1F   4/ 5   2/150/ 9
FOLLY BEACH CMAN 0400   53      30/  9/ 10 1025.2F
CAPERS NEARSHORE 0308   54 61   20/ 10/ 12 1025.1R
FRIPP NEARSHORE  0408   57 63   50/ 12/ 16 1023.9F


STATION/POSITION TIME  TEMP    WIND        PRES    WAVE   SWELL
                       AIR SEA DIR/SP/G            HT/PER HT/PER/DIR
                 (UTC) (F)     (DEG/KT/KT) (MB)    (FT/S) (FT/S/D)
5E ST. MARYS GA  0400      66                N/A     4/ 5
FRYING PAN BUOY  0410   56 73   10/ 10/ 14 1025.0
BUOY 41025       0350   53 75  360/ 14/ 17 1024.3R   6/ 9   5/ 70/ 9
CAPE LOOKOUT NC  0400   50     340/  7/  9 1025.0R
BUOY 41002       0350   63 73   20/  6/ 10 1021.8S   6/ 7   5/ 20/ 7
BUOY 41010       NOT AVBL
ST AUGUSTINE FL  0400   69 67   90/ 10/ 10 1022.1S


$$




USA.gov is the U.S. government's official web portal to all federal, state and local government web resources and services.